[[{"header":{"parameterUnit":"m.s-1","parameterCategory":1,"la1":30.2991,"la2":30.254,"lo1":-89.0895,"lo2":-89.0444,"dy":0.0017,"dx":0.0017,"nx":28,"ny":28,"refTime":"2023-08-08T21:00:00:Z","depth":0,"parameterNumber":2,"parameterNumberName":"U-component_of_WINDS"},"data":[0,0,0,0,0,0,0,0,0,0,0,0,0,0,0,0,0,0,0,0,0,0,0,0,0,0,0,0,0,0,0,0,0,0,0,0,0,0,0,0,0,0,0,0,0,0,0,0,0,0,0,0,0,0,0,0,0,0,3.6843,3.6844,0,3.6952,3.6954,3.6955,3.6905,3.6902,3.6899,3.6897,3.7009,3.7015,3.702,0,0,0,0,0,0,0,0,0,0,0,0,0,3.6592,3.6596,3.6843,3.6845,3.6846,3.6952,3.6954,3.6955,3.6905,3.6902,3.6899,3.6896,3.7007,3.7014,3.7021,0,0,0,0,0,0,0,0,0,0,0,0,0,3.6701,3.6598,3.6843,3.6834,3.6834,3.6952,3.6954,3.6955,3.6906,3.6902,3.6898,3.6894,3.7005,3.7013,3.7021,3.7154,0,0,3.7047,3.705,0,0,0,0,0,0,0,0,3.6695,3.671,3.6834,3.6835,3.6835,3.6911,3.6906,3.7022,3.6907,3.6879,3.6897,3.6892,3.698,3.699,3.7019,3.716,3.7165,3.7048,3.7053,3.7056,3.7058,0,0,0,0,0,0,0,3.6687,3.6705,3.6886,3.6836,3.6837,3.6824,3.6835,3.6928,3.6951,3.6881,3.6878,3.6891,3.6979,3.7012,3.7022,3.7166,3.7047,3.7055,3.706,3.7063,3.742,3.7424,0,0,0,0,0,0,3.668,3.6699,3.6883,3.689,3.6753,3.6832,3.6844,3.6891,3.695,3.6955,3.6895,3.6888,3.6999,3.7012,3.7025,3.7184,3.7056,3.7064,3.7069,3.7415,3.7421,3.7426,0,0,0,0,0,0,3.6675,3.6697,3.6878,3.6794,3.6816,3.6841,3.6893,3.6895,3.6927,3.696,3.6964,3.6923,3.6997,3.7014,3.7122,3.7187,3.7068,3.7075,3.741,3.7417,3.7423,3.7503,0,0,0,0,0,0,3.6668,3.6695,3.6746,3.6795,3.682,3.6974,3.6897,3.69,3.6941,3.6934,3.6988,3.6993,3.6995,3.711,3.7131,3.7196,3.7082,3.7404,3.7413,3.7421,3.7494,3.7511,3.7526,0,0,0,0,0,3.6659,3.6765,3.6749,3.6771,3.6885,3.6978,3.6992,3.6992,3.6947,3.6998,3.7019,3.6991,3.7177,3.7122,3.7144,3.7214,3.74,3.7411,3.742,3.7487,3.7508,3.7526,0,0,0,0,0,0,3.6723,3.6771,3.6754,3.6879,3.6925,3.6969,3.7034,3.7014,3.7074,3.7065,3.7063,3.7075,3.7187,3.7211,3.7149,3.7345,3.7282,3.7297,3.7325,3.7345,3.736,3.7352,3.7088,0,0,0,0,0,3.6751,3.6823,3.6861,3.6968,3.6991,3.7009,3.7049,3.7045,3.7093,3.7112,3.7141,3.7188,3.7257,3.7302,3.7367,3.7498,3.7508,3.7557,3.7572,3.7585,3.7598,3.7667,3.7689,3.7459,3.7459,3.7459,0,0,3.6811,3.6846,3.6892,3.6981,3.7016,3.709,3.7025,3.7107,3.7161,3.7124,3.7228,3.7251,3.7304,3.7423,3.7478,3.7447,3.7664,3.7598,3.7608,3.7614,3.768,3.7702,3.7721,3.7466,3.7465,3.7463,0,0,3.6958,3.6992,3.7084,3.712,3.7174,3.7184,3.7207,3.7254,3.7268,3.7372,3.7345,3.7411,3.753,3.7568,3.7603,3.7763,3.7739,3.7784,3.7866,3.7934,3.7952,3.7968,3.8024,3.8045,3.7797,3.7797,3.7798,0,3.7026,3.7136,3.7134,3.7217,3.7256,3.7226,3.7318,3.7354,3.7426,3.7454,3.7419,3.7566,3.76,3.7727,3.7766,3.7796,3.7821,3.7778,3.795,3.7966,3.7981,3.8034,3.8055,3.7802,3.7802,3.7801,3.7801,0,3.7216,3.7293,3.7361,3.743,3.7478,3.7565,3.7576,3.7624,3.7616,3.763,3.7736,3.7775,3.7847,3.7877,3.7871,3.8004,3.7983,3.7949,3.7885,3.8008,3.8058,3.8078,3.781,3.7808,3.7806,3.7805,0,0,3.7406,3.7473,3.7498,3.7529,3.7585,3.7644,3.773,3.78,3.7841,3.7892,3.7963,3.8065,3.8033,3.8073,3.807,3.8129,3.8252,3.8088,3.8089,3.8116,3.8401,3.8425,3.8449,3.8237,3.8241,3.8244,3.8396,0,3.7556,3.7706,3.7706,3.7844,3.7914,3.7886,3.7961,3.8003,3.8019,3.8081,3.8098,3.817,3.8123,3.8147,3.8205,3.8225,3.8309,3.8214,3.8303,3.8306,3.829,3.8476,3.8502,3.8643,3.8416,3.8419,3.8421,0,3.7751,3.7807,3.7953,3.7997,3.8027,3.8094,3.8158,3.8217,3.8265,3.8272,3.8316,3.8304,3.8391,3.8325,3.8444,3.838,3.8416,3.8432,3.8437,3.8445,3.8371,3.8487,3.8689,3.8709,3.8453,3.845,3.8448,0,3.7874,3.7986,3.8087,3.8114,3.817,3.8217,3.8243,3.8286,3.8328,3.8384,3.841,3.8476,3.8512,3.8563,3.8568,3.852,3.8688,3.8623,3.8696,3.8696,3.8732,3.8729,3.8941,3.8757,3.8757,3.8756,3.8756,0,3.8041,3.813,3.8143,3.8205,3.8304,3.8303,3.8401,3.8423,3.8461,3.8527,3.8507,3.8569,3.8572,3.8636,3.8641,3.8738,3.8755,3.8763,3.8763,3.8764,3.8763,3.8787,3.8777,3.8762,3.8761,3.876,3.8759,0,3.8194,3.8206,3.8314,3.8358,3.8371,3.8442,3.8479,3.8538,3.8551,3.8634,3.8654,3.8675,3.8749,3.8759,3.8846,3.8849,3.8966,3.8956,3.8949,3.8948,3.9019,3.9012,3.9253,3.9284,3.9081,3.9083,3.9085,0,3.83,3.8368,3.8418,3.846,3.8488,3.8556,3.8598,3.86,3.8644,3.8703,3.8755,3.8826,3.8883,3.9002,3.9026,3.9091,3.9083,3.9163,3.9092,3.9091,3.9083,3.9078,3.9084,3.9176,3.9178,3.918,3.9181,0,3.8485,3.8487,3.8548,3.8612,3.8663,3.8713,3.876,3.8796,3.8803,3.8855,3.8929,3.8973,3.9061,3.9132,3.9197,3.9223,3.9204,3.9203,3.9223,3.9225,3.9218,3.9221,3.8985,3.9198,3.9196,3.9195,3.9194,3.9193,3.8617,3.8676,3.872,3.8788,3.8824,3.8868,3.8925,3.8946,3.9008,3.9079,3.9076,3.9158,3.9203,3.9288,3.9318,3.9382,3.9356,3.9386,3.9393,3.94,3.9406,3.9208,3.9394,3.9394,3.9393,3.9393,3.9393,0,3.88,3.8827,3.889,3.8956,3.901,3.8987,3.9038,3.9084,3.9156,3.92,3.9256,3.9341,3.9409,3.9438,3.9505,3.9551,3.9543,3.9568,3.9564,3.957,3.9427,3.9402,3.9573,3.9573,3.9573,3.9573,3.9573,3.9573,3.8902,3.8999,3.9007,3.9121,3.9147,3.9227,3.9258,3.9298,3.9333,3.9428,3.9485,3.9503,3.954,3.9609,3.9671,3.9678,3.9703,3.9731,3.9734,3.9599,3.9581,3.9563,3.954,3.9737,3.9737,3.9872,3.9874,3.9875]},{"header":{"parameterUnit":"m.s-1","parameterCategory":1,"la1":30.2991,"la2":30.254,"lo1":-89.0895,"lo2":-89.0444,"dy":0.0017,"dx":0.0017,"nx":28,"ny":28,"refTime":"2023-08-08T21:00:00:Z","depth":0,"parameterNumber":3,"parameterNumberName":"V-component_of_WINDS"},"data":[0,0,0,0,0,0,0,0,0,0,0,0,0,0,0,0,0,0,0,0,0,0,0,0,0,0,0,0,0,0,0,0,0,0,0,0,0,0,0,0,0,0,0,0,0,0,0,0,0,0,0,0,0,0,0,0,0,0,-0.3852,-0.3853,0,-0.3909,-0.391,-0.391,-0.3979,-0.398,-0.3981,-0.3982,-0.4038,-0.4038,-0.4039,0,0,0,0,0,0,0,0,0,0,0,0,0,-0.3801,-0.3802,-0.3852,-0.3853,-0.3854,-0.3909,-0.391,-0.3911,-0.3978,-0.398,-0.3981,-0.3982,-0.4037,-0.4038,-0.4039,0,0,0,0,0,0,0,0,0,0,0,0,0,-0.3837,-0.3802,-0.3852,-0.3894,-0.3899,-0.3909,-0.391,-0.3911,-0.3978,-0.398,-0.3981,-0.3983,-0.4037,-0.4038,-0.4039,-0.4012,0,0,-0.4041,-0.4041,0,0,0,0,0,0,0,0,-0.3835,-0.3839,-0.3887,-0.3891,-0.3896,-0.3938,-0.3912,-0.3944,-0.3978,-0.3948,-0.3982,-0.3984,-0.4003,-0.4007,-0.4014,-0.4014,-0.4017,-0.4041,-0.4042,-0.4042,-0.4042,0,0,0,0,0,0,0,-0.3832,-0.3837,-0.3875,-0.3888,-0.3893,-0.391,-0.3917,-0.3919,-0.3966,-0.3951,-0.3956,-0.3962,-0.4006,-0.4013,-0.4016,-0.4017,-0.4041,-0.4042,-0.4042,-0.4042,-0.3998,-0.3996,0,0,0,0,0,0,-0.3824,-0.3834,-0.3873,-0.3876,-0.3869,-0.3909,-0.3917,-0.3923,-0.3966,-0.3974,-0.396,-0.3964,-0.4011,-0.4015,-0.4018,-0.3988,-0.4042,-0.4043,-0.4043,-0.4,-0.3998,-0.3996,0,0,0,0,0,0,-0.3822,-0.3827,-0.3871,-0.3857,-0.3864,-0.3909,-0.3915,-0.3923,-0.3931,-0.3973,-0.3982,-0.3959,-0.4012,-0.4017,-0.4013,-0.3991,-0.4043,-0.4044,-0.4001,-0.3999,-0.3997,-0.3928,0,0,0,0,0,0,-0.3821,-0.3826,-0.3816,-0.3856,-0.3864,-0.3864,-0.3914,-0.3923,-0.3932,-0.3938,-0.3974,-0.3982,-0.4014,-0.4011,-0.4013,-0.3993,-0.4044,-0.4004,-0.4,-0.3997,-0.3933,-0.3924,-0.3916,0,0,0,0,0,-0.3819,-0.3794,-0.3815,-0.3819,-0.3853,-0.3863,-0.3868,-0.3906,-0.393,-0.392,-0.3948,-0.3981,-0.3994,-0.401,-0.4013,-0.3993,-0.4005,-0.4001,-0.3998,-0.3936,-0.3926,-0.3917,0,0,0,0,0,0,-0.3749,-0.38,-0.3824,-0.3812,-0.3833,-0.3875,-0.3863,-0.3893,-0.3907,-0.3912,-0.3959,-0.3966,-0.3956,-0.3975,-0.3992,-0.3969,-0.4004,-0.4001,-0.3956,-0.3947,-0.3939,-0.3933,-0.4045,0,0,0,0,0,-0.3733,-0.3737,-0.3782,-0.3767,-0.3776,-0.3818,-0.3824,-0.3852,-0.3875,-0.3884,-0.3911,-0.3931,-0.394,-0.3945,-0.3956,-0.3937,-0.3945,-0.3924,-0.3916,-0.3909,-0.3905,-0.3896,-0.3887,-0.3984,-0.3984,-0.3984,0,0,-0.3698,-0.3727,-0.3727,-0.3753,-0.3773,-0.3776,-0.3825,-0.3826,-0.3828,-0.3884,-0.3881,-0.3902,-0.3928,-0.3916,-0.3912,-0.3931,-0.388,-0.3904,-0.3899,-0.3898,-0.3891,-0.3882,-0.3873,-0.3981,-0.3982,-0.3982,0,0,-0.3637,-0.3659,-0.3649,-0.3668,-0.3697,-0.3725,-0.3723,-0.3761,-0.3776,-0.3775,-0.3817,-0.382,-0.3835,-0.3851,-0.3862,-0.3808,-0.3838,-0.381,-0.3766,-0.3757,-0.3749,-0.3742,-0.3721,-0.3714,-0.3806,-0.3806,-0.3806,0,-0.359,-0.3596,-0.364,-0.3638,-0.3648,-0.37,-0.369,-0.3706,-0.3736,-0.3742,-0.3763,-0.3782,-0.3804,-0.3796,-0.3783,-0.379,-0.3788,-0.3805,-0.3747,-0.374,-0.3735,-0.3716,-0.3708,-0.3802,-0.3803,-0.3803,-0.3804,0,-0.3537,-0.3541,-0.3529,-0.3558,-0.3567,-0.3561,-0.3603,-0.3607,-0.3634,-0.366,-0.3658,-0.3686,-0.3702,-0.3703,-0.373,-0.3699,-0.371,-0.3738,-0.3774,-0.3721,-0.3704,-0.3697,-0.3797,-0.3798,-0.38,-0.38,0,0,-0.3431,-0.3485,-0.348,-0.3493,-0.353,-0.3533,-0.353,-0.3547,-0.3549,-0.3569,-0.3566,-0.3578,-0.3605,-0.3616,-0.3646,-0.3637,-0.3591,-0.3667,-0.3668,-0.365,-0.3558,-0.3534,-0.3525,-0.3613,-0.3611,-0.361,-0.3555,0,-0.3374,-0.3371,-0.3411,-0.3396,-0.34,-0.345,-0.3447,-0.3469,-0.3493,-0.3499,-0.3527,-0.3533,-0.3569,-0.3576,-0.357,-0.3598,-0.3573,-0.3603,-0.3609,-0.3609,-0.3598,-0.3517,-0.3492,-0.3438,-0.3549,-0.3548,-0.3547,0,-0.3308,-0.3324,-0.331,-0.3348,-0.3351,-0.3347,-0.3366,-0.3372,-0.3398,-0.3416,-0.343,-0.3464,-0.3462,-0.3498,-0.3496,-0.3516,-0.3521,-0.3535,-0.3534,-0.3534,-0.3573,-0.3512,-0.3422,-0.3413,-0.3537,-0.3538,-0.3538,0,-0.3229,-0.3249,-0.3243,-0.3253,-0.3297,-0.3293,-0.3311,-0.3339,-0.3347,-0.3363,-0.3369,-0.3385,-0.3393,-0.3405,-0.3442,-0.3465,-0.3435,-0.3474,-0.3449,-0.3447,-0.3438,-0.3438,-0.3345,-0.3445,-0.3445,-0.3445,-0.3445,0,-0.3161,-0.315,-0.3208,-0.3204,-0.3194,-0.3239,-0.3227,-0.325,-0.3275,-0.3275,-0.332,-0.332,-0.337,-0.3376,-0.3405,-0.3398,-0.3402,-0.3416,-0.3423,-0.341,-0.3408,-0.3413,-0.3416,-0.3443,-0.3444,-0.3444,-0.3444,0,-0.3071,-0.311,-0.3106,-0.3149,-0.3159,-0.3149,-0.3185,-0.3183,-0.3211,-0.3211,-0.3214,-0.3258,-0.3266,-0.3305,-0.3323,-0.3343,-0.3325,-0.3342,-0.3316,-0.3321,-0.3292,-0.3294,-0.3197,-0.3187,-0.3295,-0.3294,-0.3293,0,-0.3023,-0.3016,-0.3058,-0.3062,-0.3078,-0.3085,-0.3093,-0.3138,-0.3145,-0.3174,-0.3168,-0.3181,-0.3193,-0.3204,-0.3237,-0.3251,-0.3266,-0.3232,-0.3269,-0.3256,-0.3264,-0.3263,-0.3261,-0.3223,-0.3222,-0.3221,-0.322,0,-0.2934,-0.2954,-0.2965,-0.2982,-0.2991,-0.3007,-0.3025,-0.3026,-0.3076,-0.3082,-0.3091,-0.3101,-0.312,-0.3131,-0.315,-0.3169,-0.3201,-0.3208,-0.3203,-0.3188,-0.3173,-0.3179,-0.3292,-0.321,-0.3211,-0.3211,-0.3212,-0.3212,-0.2863,-0.2859,-0.2887,-0.2898,-0.2917,-0.2933,-0.2933,-0.2961,-0.297,-0.2989,-0.3016,-0.3021,-0.3048,-0.3078,-0.3093,-0.3098,-0.3117,-0.3109,-0.3107,-0.3104,-0.3097,-0.3174,-0.3102,-0.3103,-0.3103,-0.3103,-0.3103,0,-0.2775,-0.2796,-0.2805,-0.283,-0.2838,-0.287,-0.2893,-0.2897,-0.2901,-0.2924,-0.2935,-0.2946,-0.2957,-0.2992,-0.3006,-0.3004,-0.3019,-0.3006,-0.3005,-0.3009,-0.308,-0.3082,-0.2993,-0.2993,-0.2993,-0.2993,-0.2993,-0.2993,-0.273,-0.2724,-0.2747,-0.2751,-0.2773,-0.2779,-0.2789,-0.2804,-0.2822,-0.2832,-0.2842,-0.2865,-0.2891,-0.2909,-0.292,-0.293,-0.2933,-0.2914,-0.2928,-0.2993,-0.3004,-0.3014,-0.3016,-0.2914,-0.2914,-0.2856,-0.2856,-0.2855]}]]